Terminal Aerodrome Forecast
Issued by NWS

Home | Current Version | Previous Version | Graphics & Text | Print | Product List | Glossary On
Versions: 1 2 3 4 5 6 7 8 9 10 11 12 13 14 15 16 17 18 19 20 21 22 23 24 25 26 27 28 29 30 31 32
000
FTUS45 KGGW 221100
TAFGDV
TAF
KGDV 221127Z 2212/2312 VRB06KT P6SM SCT100
     FM221800 20008KT P6SM SCT100
     FM230300 26015G22KT P6SM VCSH BKN060
      AMD LTD TO CLD VIS AND WIND=

USA.gov is the U.S. government's official web portal to all federal, state and local government web resources and services.